Wind_Speed
16 17 17 17 18 18 18 19 19 19 20 21 22 22 22 22 22 23 23 23 23 23 23 23 23 23 23 22 23 22 21 21 21 21 21 21 21 21
18 18 19 19 19 19 19 19 20 21 22 22 22 23 23 22 22 23 23 24 24 23 23 23 24 23 22 22 22 21 21 21 22 22 22 22 22 22
19 19 19 20 21 21 21 22 22 22 22 22 23 23 22 22 22 23 24 24 24 24 24 24 25 24 23 23 23 22 22 22 22 22 22 23 23 22
20 20 20 21 22 23 23 23 23 22 22 23 23 22 22 22 22 23 24 24 24 25 24 23 23 23 23 23 23 23 22 22 23 23 22 23 23 22
22 23 23 24 23 23 24 24 23 23 23 23 22 22 22 22 23 23 24 24 24 25 24 24 24 23 24 23 23 22 22 22 22 22 22 22 23 22
24 24 24 24 24 24 24 23 24 24 23 23 22 22 22 23 24 24 24 24 25 25 25 24 24 24 24 24 23 23 23 22 22 22 22 22 22 23
25 25 25 24 24 24 24 24 24 24 24 23 23 23 23 23 24 25 25 26 26 25 25 25 25 25 25 24 24 24 24 23 22 22 23 23 23 23
26 26 25 25 25 24 25 25 25 24 25 25 24 24 24 24 24 24 25 25 25 25 24 24 25 25 25 24 24 24 24 23 23 23 23 23 23 23
27 26 27 26 26 26 25 25 25 25 25 25 25 24 24 24 24 25 25 24 24 24 24 24 24 24 25 25 25 24 24 25 24 24 24 24 24 24
28 28 28 27 27 27 27 27 27 27 26 26 25 25 24 24 24 25 25 25 24 23 24 24 24 24 24 25 25 24 24 24 24 24 24 23 23 23
28 28 28 28 28 28 28 28 28 28 27 27 26 25 25 25 25 26 25 25 24 24 24 24 24 24 24 25 24 25 25 25 24 23 23 23 23 23
28 28 29 29 29 30 29 29 29 28 27 27 26 25 25 25 26 26 26 25 24 23 23 24 24 24 24 23 24 24 25 24 24 23 22 22 23 22
27 28 28 29 30 30 29 29 29 28 27 27 26 26 26 26 25 25 25 25 25 24 24 24 23 24 23 23 23 23 23 23 23 22 22 21 21 21
28 28 28 28 29 29 28 28 27 27 27 27 27 27 26 26 26 25 25 25 25 25 24 23 23 23 23 23 23 23 23 23 22 22 22 22 22 21
29 29 29 29 29 28 27 26 26 26 27 27 27 27 27 27 26 26 26 26 25 25 24 23 24 24 24 23 23 23 22 23 22 22 23 23 23 22
29 28 28 28 27 26 26 25 25 25 26 26 26 27 27 27 27 26 26 26 26 25 24 24 24 25 25 24 23 23 22 22 22 22 22 23 23 22
27 26 26 26 25 25 25 25 26 26 26 26 26 26 27 26 26 26 26 26 26 26 26 25 24 25 26 26 25 24 23 23 23 23 23 23 23 22
27 26 25 25 25 25 25 25 26 26 26 26 26 26 25 25 25 25 25 25 25 26 26 25 25 25 25 25 24 24 24 24 24 24 24 23 23 22
27 26 26 26 26 26 25 25 26 26 26 26 27 26 25 25 24 24 24 24 24 24 25 25 24 24 24 24 24 24 24 23 23 22 22 23 23 23
27 27 27 26 26 25 26 26 26 25 25 25 25 25 24 24 24 23 23 22 23 23 24 24 24 24 23 23 23 23 23 23 23 23 22 23 23 22
27 27 27 27 26 26 26 26 26 25 25 25 24 23 23 23 23 22 22 22 23 23 23 23 23 22 22 23 23 22 22 22 23 22 22 22 22 22
27 26 26 26 26 26 26 26 25 25 24 24 23 23 23 23 22 22 22 22 23 23 23 23 23 22 22 23 22 22 22 22 21 21 22 21 21 22
27 27 26 26 26 25 25 25 24 24 24 23 23 23 23 22 22 23 23 23 23 23 23 23 22 22 22 22 21 21 21 21 21 21 21 21 21 22
Wind_Direction
292 292 292 293 295 295 295 295 295 295 294 291 289 288 288 285 281 279 278 279 279 278 276 274 271 272 273 274 274 269 270 269 268 266 266 265 265 265
292 291 292 292 295 294 295 297 297 296 295 292 290 288 288 284 281 278 277 279 279 278 277 274 272 270 270 271 271 269 269 268 268 268 267 265 263 264
293 291 293 294 294 294 295 296 298 297 294 292 290 289 287 284 283 280 279 280 280 280 279 276 273 271 272 270 269 268 268 268 267 267 267 266 265 265
292 292 291 292 291 292 294 295 295 295 294 292 291 291 289 286 284 282 282 283 283 283 283 279 278 276 274 272 269 268 267 267 267 267 267 266 266 266
291 291 292 294 296 296 296 296 295 294 294 293 292 293 290 287 285 284 285 286 286 285 283 280 279 279 278 274 271 272 270 268 267 266 265 265 266 265
291 291 292 294 295 296 296 295 294 294 294 293 293 292 290 289 286 284 285 285 285 284 283 281 279 279 279 275 273 273 272 271 267 265 265 264 264 263
290 291 293 293 294 294 294 294 293 293 292 291 291 291 290 289 288 287 286 284 283 283 283 282 279 279 277 276 275 272 271 270 268 266 265 265 264 262
290 291 291 292 293 293 294 293 292 292 292 292 291 290 290 289 288 287 286 286 284 283 282 281 280 279 277 276 277 276 272 270 268 268 266 265 265 264
289 290 291 292 292 292 292 291 290 290 291 290 288 289 290 289 288 287 287 288 286 283 282 282 280 279 278 278 277 277 274 271 270 268 265 263 264 265
288 289 289 289 290 289 289 289 289 288 289 288 286 287 288 288 288 288 288 287 285 282 281 280 280 280 277 277 277 278 276 273 271 268 264 263 261 262
290 290 289 289 289 288 287 287 286 287 287 286 286 286 286 286 286 288 287 286 284 283 281 281 280 279 278 277 278 278 277 275 272 269 266 263 262 261
290 289 288 287 287 288 286 285 286 285 284 284 284 285 286 286 285 285 284 283 282 281 280 280 279 279 279 277 277 275 274 272 271 270 268 266 263 262
291 290 290 289 288 288 285 285 285 283 282 282 282 284 285 286 285 284 282 281 280 280 280 279 279 278 278 277 277 275 271 271 271 270 269 267 265 263
293 292 291 291 291 289 286 284 283 283 281 280 281 282 283 284 284 282 281 280 279 279 279 278 279 279 278 278 277 274 271 270 270 269 267 266 265 264
292 291 291 290 291 290 288 285 283 283 282 282 281 282 283 283 282 281 279 279 278 277 277 276 276 277 280 279 276 273 271 270 268 266 265 266 265 264
291 291 291 291 291 290 290 289 287 285 284 283 283 283 283 283 280 279 278 277 277 277 276 275 274 275 275 276 276 274 271 270 269 267 267 266 265 263
293 292 292 292 291 291 290 287 286 285 285 285 285 285 284 282 280 278 276 277 277 277 277 276 274 273 273 274 273 272 270 269 268 267 266 265 265 263
295 294 293 292 293 292 290 288 286 285 285 285 285 285 284 282 281 278 277 276 275 276 277 277 275 273 273 274 272 270 270 267 266 264 263 263 263 263
294 294 294 294 294 293 291 289 288 287 286 285 284 283 282 281 280 279 278 276 274 275 277 277 276 274 274 272 270 269 269 268 268 266 264 262 263 264
292 293 292 292 292 292 292 291 289 287 286 285 283 282 280 281 280 278 277 277 275 276 277 279 278 276 275 274 272 269 267 265 265 265 264 263 262 262
290 291 291 291 291 290 290 290 288 287 286 285 283 281 280 279 278 277 276 276 276 277 278 279 280 280 278 275 273 270 268 267 266 265 263 263 261 259
288 290 291 291 290 290 290 290 288 287 286 285 283 281 280 277 276 276 276 276 276 277 278 278 279 279 279 277 275 271 267 267 266 264 263 263 262 262
286 288 289 290 290 290 290 289 288 287 287 285 283 282 280 278 277 278 277 277 277 277 276 277 278 276 276 275 275 273 268 266 266 263 263 261 260 260
Height
5867 5866 5864 5863 5861 5860 5858 5856 5855 5853 5851 5849 5847 5846 5844 5843 5842 5841 5841 5840 5839 5838 5837 5836 5835 5835 5835 5834 5834 5833 5833 5833 5833 5834 5834 5834 5834 5834
5863 5862 5860 5859 5857 5856 5854 5852 5850 5848 5846 5844 5842 5841 5839 5838 5837 5836 5835 5834 5833 5832 5831 5830 5829 5829 5829 5828 5827 5827 5827 5828 5828 5828 5828 5828 5828 5828
5859 5857 5856 5854 5852 5851 5849 5847 5845 5843 5841 5839 5837 5835 5834 5833 5831 5830 5829 5828 5827 5826 5825 5824 5823 5823 5822 5822 5821 5821 5821 5821 5821 5821 5821 5821 5821 5822
5855 5853 5851 5849 5847 5845 5843 5841 5839 5837 5836 5834 5832 5830 5829 5827 5826 5825 5824 5823 5822 5820 5819 5818 5817 5817 5816 5816 5815 5814 5814 5814 5815 5815 5815 5815 5815 5815
5850 5848 5846 5844 5842 5840 5838 5836 5834 5832 5830 5828 5826 5825 5823 5822 5821 5819 5818 5817 5815 5814 5813 5812 5811 5811 5810 5809 5809 5808 5808 5808 5808 5808 5808 5808 5808 5809
5844 5842 5840 5838 5836 5834 5832 5830 5828 5826 5824 5822 5821 5819 5817 5816 5814 5813 5812 5811 5809 5808 5807 5806 5805 5804 5803 5803 5802 5802 5801 5801 5801 5801 5801 5802 5802 5802
5838 5836 5834 5832 5830 5828 5826 5824 5822 5820 5818 5817 5815 5813 5812 5810 5808 5807 5805 5804 5802 5801 5800 5799 5798 5797 5797 5796 5795 5795 5794 5794 5794 5794 5795 5795 5795 5795
5831 5829 5827 5825 5823 5821 5819 5818 5816 5814 5812 5811 5809 5807 5806 5804 5802 5800 5798 5797 5796 5795 5793 5792 5791 5790 5790 5789 5789 5788 5788 5787 5787 5787 5788 5788 5788 5788
5824 5822 5820 5818 5817 5815 5813 5811 5809 5807 5806 5804 5803 5801 5799 5797 5796 5794 5792 5791 5789 5788 5786 5785 5784 5784 5783 5782 5782 5781 5781 5781 5780 5780 5780 5781 5781 5781
5816 5815 5813 5811 5809 5807 5805 5803 5802 5800 5798 5797 5795 5794 5792 5790 5789 5787 5785 5784 5783 5781 5780 5779 5778 5777 5776 5776 5775 5775 5774 5773 5773 5773 5773 5774 5774 5774
5808 5806 5804 5803 5801 5799 5797 5795 5794 5792 5790 5789 5788 5786 5785 5783 5781 5780 5778 5777 5775 5774 5773 5772 5771 5770 5769 5769 5768 5768 5767 5767 5766 5766 5766 5766 5767 5767
5800 5798 5796 5794 5793 5790 5788 5787 5785 5784 5782 5781 5780 5778 5777 5775 5774 5772 5771 5769 5768 5767 5766 5765 5764 5763 5762 5762 5761 5760 5760 5760 5760 5760 5760 5760 5760 5760
5791 5789 5787 5785 5783 5781 5780 5778 5777 5775 5774 5773 5771 5770 5769 5768 5766 5764 5763 5762 5761 5760 5759 5758 5757 5756 5755 5755 5754 5753 5753 5753 5753 5753 5753 5753 5754 5754
5783 5781 5779 5777 5775 5772 5771 5769 5768 5766 5765 5764 5763 5762 5760 5759 5758 5757 5755 5754 5753 5752 5751 5751 5750 5749 5748 5748 5747 5746 5746 5746 5746 5747 5747 5747 5747 5748
5775 5773 5770 5768 5766 5764 5762 5761 5759 5758 5756 5755 5754 5753 5752 5751 5749 5748 5747 5746 5745 5744 5744 5743 5743 5742 5741 5741 5740 5740 5739 5739 5739 5740 5740 5741 5741 5741
5766 5764 5762 5760 5758 5756 5754 5752 5751 5750 5748 5747 5745 5744 5743 5742 5741 5740 5739 5738 5737 5737 5736 5736 5735 5735 5734 5733 5733 5732 5732 5732 5732 5733 5733 5734 5734 5734
5758 5756 5754 5752 5750 5748 5746 5744 5743 5741 5740 5739 5737 5735 5734 5733 5732 5731 5730 5730 5729 5729 5728 5728 5727 5726 5726 5725 5725 5725 5725 5725 5725 5726 5726 5726 5727 5727
5751 5748 5746 5744 5742 5740 5738 5736 5735 5733 5732 5730 5729 5727 5726 5725 5724 5723 5722 5721 5721 5721 5720 5719 5719 5718 5719 5718 5718 5718 5717 5718 5718 5718 5718 5719 5720 5721
5743 5741 5738 5736 5734 5732 5730 5728 5727 5725 5723 5722 5720 5719 5718 5716 5715 5714 5714 5713 5713 5713 5712 5712 5711 5710 5711 5711 5711 5711 5710 5711 5711 5711 5711 5712 5713 5714
5735 5733 5730 5728 5727 5725 5723 5721 5718 5717 5715 5714 5712 5711 5710 5709 5708 5707 5706 5706 5705 5705 5705 5704 5704 5703 5703 5703 5703 5703 5703 5703 5704 5704 5704 5704 5705 5706
5727 5725 5723 5721 5719 5717 5715 5713 5711 5709 5707 5706 5704 5703 5702 5701 5700 5699 5699 5699 5698 5698 5698 5697 5697 5696 5695 5695 5696 5696 5696 5696 5696 5696 5697 5697 5698 5699
5718 5716 5715 5713 5710 5708 5706 5704 5703 5701 5699 5698 5696 5695 5694 5693 5693 5692 5692 5692 5691 5691 5690 5690 5689 5689 5688 5688 5688 5688 5689 5689 5689 5689 5690 5690 5691 5692
5710 5708 5706 5704 5702 5700 5698 5696 5695 5693 5691 5690 5689 5688 5687 5686 5685 5685 5684 5684 5684 5683 5683 5682 5682 5682 5681 5681 5681 5681 5681 5681 5682 5682 5683 5683 5684 5684